Arlington, WA
on Wednesday, January 9, 2013

Wednesday
Previous Day Next Day
Daily Summary
 ActualAverageRecord
Temperature
Mean Temperature °F °F  
Max Temperature 50°F 46°F 55°F (2004)
Min Temperature 30°F 25°F 17°F (1977)
Degree Days
Heating Degree Days 25    
Moisture
Dew Point 36°F   
Average Humidity 89    
Maximum Humidity 93    
Minimum Humidity 81    
Precipitation
Precipitation 0.54 in in in ()
Wind
Wind Speed 7 mph   
Max Wind Speed 18 mph   
Max Gust Speed 29 mph   
Visibility 9 miles   
Events     
Averages and records for this station are not official NWS values.
Key: T is trace of precipitation, MM is missing value
Source: NWS Daily Summary
Seasonal Weather Averages
Time(PST)TemperatureDew PointHumidity Pressure Visibility Wind DirectionWind SpeedGust SpeedPrecipitationEvents Conditions
12:15 AM 50.0°F 46.4°F 87% 29.72 in 10.0 miles South 18.4 mph 24.2 mph N/A   Overcast
12:35 AM 50.0°F 44.6°F 82% 29.72 in 10.0 miles South 17.3 mph 25.3 mph N/A   Overcast
12:55 AM 50.0°F 44.6°F 82% 29.72 in 10.0 miles South 17.3 mph 27.6 mph N/A   Mostly Cloudy
1:15 AM 50.0°F 44.6°F 82% 29.73 in 10.0 miles SSW 17.3 mph 27.6 mph N/A   Overcast
1:35 AM 50.0°F 44.6°F 82% 29.72 in 10.0 miles South 18.4 mph 28.8 mph N/A   Overcast
1:55 AM 48.2°F 44.6°F 87% 29.72 in 10.0 miles South 13.8 mph 20.7 mph N/A   Overcast
2:15 AM 48.2°F 44.6°F 87% 29.73 in 10.0 miles SSW 16.1 mph 25.3 mph N/A   Overcast
2:35 AM 48.2°F 44.6°F 87% 29.73 in 9.0 miles South 11.5 mph 20.7 mph 0.01 in   Mostly Cloudy
2:55 AM 46.4°F 44.6°F 93% 29.73 in 10.0 miles WNW 5.8 mph - 0.01 in   Overcast
3:15 AM 44.6°F 42.8°F 93% 29.73 in 9.0 miles Calm Calm - 0.01 in   Overcast
3:35 AM 44.6°F 42.8°F 93% 29.73 in 10.0 miles Calm Calm - 0.03 in   Overcast
3:55 AM 44.6°F 42.8°F 93% 29.72 in 9.0 miles Calm Calm - 0.04 in   Overcast
4:15 AM 44.6°F 42.8°F 93% 29.72 in 7.0 miles Calm Calm - 0.04 in   Overcast
4:35 AM 44.6°F 41.0°F 87% 29.71 in 10.0 miles Calm Calm - 0.07 in   Overcast
4:55 AM 44.6°F 42.8°F 93% 29.70 in 8.0 miles Calm Calm - 0.09 in   Overcast
5:15 AM 44.6°F 42.8°F 93% 29.69 in 9.0 miles Calm Calm - N/A   Overcast
5:35 AM 44.6°F 41.0°F 87% 29.69 in 9.0 miles Calm Calm - 0.02 in   Overcast
5:55 AM 42.8°F 41.0°F 93% 29.68 in 10.0 miles Calm Calm - 0.04 in   Overcast
6:15 AM 44.6°F 41.0°F 87% 29.68 in 10.0 miles Calm Calm - N/A   Overcast
6:35 AM 42.8°F 41.0°F 93% 29.70 in 10.0 miles Calm Calm - 0.01 in   Overcast
6:55 AM 42.8°F 41.0°F 93% 29.69 in 8.0 miles Calm Calm - 0.02 in   Overcast
7:15 AM 42.8°F 41.0°F 93% 29.70 in 8.0 miles Calm Calm - 0.01 in   Overcast
7:35 AM 42.8°F 41.0°F 93% 29.71 in 9.0 miles Calm Calm - 0.03 in   Overcast
7:55 AM 42.8°F 39.2°F 87% 29.72 in 10.0 miles SSE 3.5 mph - 0.03 in   Overcast
8:15 AM 42.8°F 39.2°F 87% 29.73 in 9.0 miles Calm Calm - 0.01 in   Overcast
8:35 AM 41.0°F 37.4°F 87% 29.74 in 8.0 miles SE 6.9 mph - 0.02 in   Overcast
8:55 AM 39.2°F 37.4°F 93% 29.75 in 9.0 miles SSE 5.8 mph - 0.04 in   Overcast
9:15 AM 39.2°F 35.6°F 87% 29.76 in 10.0 miles SE 10.4 mph - 0.02 in   Overcast
9:35 AM 39.2°F 35.6°F 87% 29.76 in 10.0 miles SSE 6.9 mph - 0.02 in   Overcast
9:55 AM 39.2°F 35.6°F 87% 29.76 in 10.0 miles ESE 5.8 mph - 0.03 in   Overcast
10:15 AM 37.4°F 35.6°F 93% 29.77 in 10.0 miles SE 9.2 mph - N/A   Overcast
10:35 AM 37.4°F 33.8°F 87% 29.77 in 10.0 miles SE 6.9 mph - N/A   Overcast
10:55 AM 37.4°F 33.8°F 87% 29.78 in 10.0 miles SSE 5.8 mph - 0.01 in   Overcast
11:15 AM 37.4°F 33.8°F 87% 29.78 in 10.0 miles SSE 8.1 mph - N/A   Overcast
11:35 AM 37.4°F 33.8°F 87% 29.79 in 10.0 miles SSE 5.8 mph - 0.01 in   Overcast
11:55 AM 35.6°F 33.8°F 93% 29.79 in 9.0 miles Calm Calm - 0.03 in   Overcast
12:15 PM 35.6°F 33.8°F 93% 29.79 in 7.0 miles Calm Calm - 0.01 in   Overcast
12:35 PM 35.6°F 33.8°F 93% 29.79 in 8.0 miles Calm Calm - 0.02 in   Overcast
12:55 PM 35.6°F 32.0°F 87% 29.80 in 4.0 miles Calm Calm - 0.04 in   Overcast
1:15 PM 35.6°F 33.8°F 93% 29.80 in 7.0 miles Calm Calm - 0.02 in   Mostly Cloudy
1:35 PM 35.6°F 33.8°F 93% 29.81 in 5.0 miles SE 4.6 mph - 0.04 in   Overcast
1:55 PM 35.6°F 33.8°F 93% 29.81 in 5.0 miles Calm Calm - 0.08 in   Overcast
2:15 PM 33.8°F 32.0°F 93% 29.82 in 9.0 miles South 3.5 mph - 0.03 in   Overcast
2:35 PM 33.8°F 32.0°F 93% 29.82 in 7.0 miles SE 6.9 mph - 0.04 in   Overcast
2:55 PM 35.6°F 33.8°F 93% 29.82 in 9.0 miles ESE 8.1 mph - 0.06 in   Overcast
3:15 PM 35.6°F 33.8°F 93% 29.82 in 8.0 miles Calm Calm - N/A   Overcast
3:35 PM 35.6°F 33.8°F 93% 29.84 in 10.0 miles Calm Calm - N/A   Overcast
3:55 PM 35.6°F 32.0°F 87% 29.85 in 10.0 miles Calm Calm - N/A   Overcast
4:15 PM 35.6°F 33.8°F 93% 29.86 in 10.0 miles Calm Calm - 0.01 in   Overcast
4:35 PM 35.6°F 33.8°F 93% 29.86 in 9.0 miles Calm Calm - 0.01 in   Overcast
4:55 PM 35.6°F 32.0°F 87% 29.87 in 10.0 miles Calm Calm - 0.01 in   Overcast
5:15 PM 35.6°F 32.0°F 87% 29.87 in 10.0 miles SSE 4.6 mph - 0.01 in   Overcast
5:35 PM 35.6°F 33.8°F 93% 29.87 in 10.0 miles Calm Calm - 0.01 in   Mostly Cloudy
5:55 PM 35.6°F 32.0°F 87% 29.89 in 10.0 miles South 5.8 mph - 0.01 in   Overcast
6:35 PM 35.6°F 32.0°F 87% 29.91 in 10.0 miles Calm Calm - N/A   Overcast
6:55 PM 35.6°F 32.0°F 87% 29.90 in 10.0 miles Calm Calm - N/A   Overcast
7:15 PM 35.6°F 32.0°F 87% 29.91 in 10.0 miles Calm Calm - N/A   Overcast
7:35 PM 35.6°F 32.0°F 87% 29.91 in 10.0 miles Calm Calm - N/A   Overcast
8:15 PM 35.6°F 30.2°F 81% 29.92 in 10.0 miles Calm Calm - N/A   Overcast
8:35 PM 35.6°F 30.2°F 81% 29.92 in 10.0 miles Calm Calm - N/A   Mostly Cloudy
8:55 PM 35.6°F 32.0°F 87% 29.93 in 10.0 miles Calm Calm - N/A   Partly Cloudy
9:15 PM 33.8°F 30.2°F 87% 29.93 in 10.0 miles South 6.9 mph - N/A   Clear
9:35 PM 33.8°F 30.2°F 87% 29.94 in 10.0 miles Calm Calm - N/A   Clear
9:55 PM 33.8°F 28.4°F 81% 29.94 in 10.0 miles Calm Calm - N/A   Clear
10:15 PM 33.8°F 30.2°F 87% 29.95 in 10.0 miles South 4.6 mph - N/A   Clear
10:35 PM 30.2°F 28.4°F 93% 29.96 in 10.0 miles Calm Calm - N/A   Scattered Clouds
10:55 PM 33.8°F 30.2°F 87% 29.97 in 10.0 miles Calm Calm - N/A   Mostly Cloudy
11:15 PM 33.8°F 30.2°F 87% 29.96 in 10.0 miles Calm Calm - N/A   Mostly Cloudy
11:35 PM 32.0°F 30.2°F 93% 29.97 in 10.0 miles Calm Calm - N/A   Scattered Clouds
11:55 PM 32.0°F 30.2°F 93% 29.97 in 9.0 miles Calm Calm - N/A   Scattered Clouds
Moon Phase
Jan. 09 Jan. 11 Jan. 18 Jan. 26 Feb. 03
Sunrise:07:57 AM (PST) Moon Rise:05:42 AM (PST)1/9
Sunset:04:35 PM (PST) Moon Set:02:41 PM (PST)1/9

Copyright © 2014 The Weather Underground, Inc.